Location: Akgöl Batakl???
(38.9482°N, 31.8837°E)
Time: 19:53:53
(UTC+00:00)

Aureole 1 Rocket - Pass Details

Date: 08 May 2026
Orbit: 372 x 1149 km, 73.9° (Epoch: 7 June)

Event Time Altitude Azimuth Distance (km) Brightness Sun altitude
Rises 21:47:31 0° 342° (NNW) 3,246 7.7 -33.8°
Reaches altitude 10° 21:49:43 10° 344° (NNW) 2,425 6.8 -33.8°
Enters shadow 21:54:01 55° 359° (N) 1,094 4.4 -33.8°
